This is the latest recevied weather packets stored in our database for station/object KC3BAN-3. If no packets are shown the sender has not sent any weather packets the latest 10 day(s).
| Time | Temp. | Humidity | Pressure | Rain* | Wind** | Luminosity | Snow |
|---|---|---|---|---|---|---|---|
| 1777646408 | 13.89° C | 75% | 1016.1 hPa | 0 mm | - | - | - |
| 1777646109 | 13.89° C | 74% | 1016.1 hPa | 0 mm | - | - | - |
| 1777645935 | 14.44° C | 77% | 1016.1 hPa | 0 mm | - | - | - |
| 1777645508 | 13.89° C | 77% | 1016.1 hPa | 0 mm | - | - | - |
| 1777645336 | 13.89° C | 75% | 1016.1 hPa | 0 mm | - | - | - |
| 1777644907 | 14.44° C | 76% | 1016 hPa | 0 mm | - | - | - |
| 1777644608 | 13.89° C | 76% | 1016 hPa | 0 mm | - | - | - |
| 1777644306 | 13.89° C | 75% | 1016 hPa | 0 mm | - | - | - |
| 1777644006 | 13.89° C | 75% | 1015.9 hPa | 0 mm | - | - | - |
| 1777643707 | 13.89° C | 76% | 1015.9 hPa | 0 mm | - | - | - |
| 1777643407 | 13.33° C | 77% | 1015.8 hPa | 0 mm | - | - | - |
| 1777643107 | 13.33° C | 77% | 1015.7 hPa | 0 mm | - | - | - |
| 1777642930 | 13.33° C | 75% | 1015.6 hPa | 0 mm | - | - | - |
| 1777642500 | 13.33° C | 74% | 1015.7 hPa | 0 mm | - | - | - |
| 1777642200 | 13.89° C | 73% | 1015.7 hPa | 0 mm | - | - | - |
| 1777641900 | 13.89° C | 75% | 1015.7 hPa | 0 mm | - | - | - |
| 1777641731 | 13.33° C | 74% | 1015.6 hPa | 0 mm | - | - | - |
| 1777641301 | 13.89° C | 75% | 1015.8 hPa | 0 mm | - | - | - |
| 1777641001 | 13.89° C | 76% | 1015.9 hPa | 0 mm | - | - | - |
| 1777640705 | 13.89° C | 75% | 1015.8 hPa | 0 mm | - | - | - |
| 1777640529 | 13.89° C | 77% | 1015.9 hPa | 0 mm | - | - | - |
| 1777640098 | 13.33° C | 77% | 1015.8 hPa | 0 mm | - | - | - |
| 1777639797 | 13.33° C | 78% | 1015.7 hPa | 0 mm | - | - | - |
| 1777639500 | 13.33° C | 78% | 1015.8 hPa | 0 mm | - | - | - |
| 1777639197 | 13.33° C | 79% | 1015.9 hPa | 0 mm | - | - | - |
* Rain latest hour (hover to see other rain measurements)
** Current wind speed in m/s (hover to see current wind gust speed)